CZ-3B DEB, 40841

Orbit data source: Space-Track

CZ-3B DEB, 40841 is space debris in HEO originally from a launch on Mon, 19 Dec 2011 UTC launched from the Xichang Space Center, China (XSC). Debris objects in space refer to the collection of defunct objects orbiting the Earth. Examples of debris include non-operational satellites, rocket bodies, and fragments generated from explosions, collisions, or faulty payload assembly.

Loading next visibility...
Identifier
40841, 2011-077W
Orbit
HEO
Country
Flag of CNCN / PRC
Related business
Manufacturer
CALT
Mission
Spacecraft
Bus & Motor
Unknown
Mass
Unknown
Launch date (UTC)
2011-12-19 (14 years ago)
Launch vehicle
Unknown
Launch site
Xichang Space Center, China (XSC)
Object type
Payload
Rocket body
Debris
Shape & HBR
Unknown shape, 0.1 m
Radar Cross Section
Medium (>0.1 m² and <1 m²)

Expand to show TLE details & history
Last TLE update: 2 months ago

TLE from 2 months ago
0 CZ-3B DEB
1 40841U 11077W   25216.98456110 -.00000512  00000-0 -21801-2 0  9997
2 40841  27.1693  88.9480 7314421 211.0665  70.1507  1.93657614 81794
Epoch: 2025-08-04T23:37Z
TLE epoch observation values (Epoch: 2025-08-04T23:37:46.079Z)
Latitude
0.00011°
Longitude
140.81208°
Altitude
27,483.316 km
Speed
2.98 km/s
True Right ascension
05h 56m 09s
True Declination
0° 00' 00"
Sunlit
Object was in daylight at epoch
Visualization orbit readout
Latitude
Unknown
Longitude
Unknown
Altitude
Unknown
Speed
Unknown
Apparent Right ascension
Unknown
Apparent Declination
Unknown
Sunlit
N/A
Visualization observer readout
Local Sidereal Time
18:31:21
Azimuth
Unknown
Elevation
Unknown
Doppler factor
Unknown
Orbital elements
Apogee altitude
40,702.585 km
Perigee altitude
924.388 km
Semi-major axis
27,191.624 km
Eccentricity
0.73144
Inclination
27.1693°
RAAN
88.948°
Arg. of periapsis
211.0665°
True anomaly
148.96085°
Mean anomaly
70.1507°
Eccentric anomaly
109.62486°
Mean motion
0.48405 °/min
Orbital period
743.72 mins
BSTAR
-0.0021801
Loading maneuver chart data...
Computing Atmospheric mass density...
Loading historical data...
Loading historical data...
Loading historical data...
Loading historical data...
Loading historical data...
Loading historical data...
Loading historical data...

Documentation

Showing up to 5 results
|